OKEAN-0
1 25860U 99039A 11040.51881054 .00000091 00000-0 21285-4 0 02275
2 25860 097.8668 010.6051 0001840 058.9783 301.1601 14.73707616621859
NOAA-16
1 26536U 00055A 11040.79528793 -.00000262 00000-0 -11651-3 0 01843
2 26536 099.1536 068.6720 0010914 034.5327 325.6544 14.12594672535378
NOAA-17
1 27453U 02032A 11040.73894807 .00000063 00000-0 45055-4 0 01804
2 27453 098.3975 086.1986 0012071 158.3445 201.8251 14.24234491448518
NOAA-18
1 28654U 05018A 11040.78530866 .00000116 00000-0 88898-4 0 06662
2 28654 098.9816 351.7237 0015143 102.7817 257.5045 14.11433689294953
NOAA-19
1 33591U 09005A 11040.75437210 .00000311 00000-0 19651-3 0 08584
2 33591 098.8155 343.1309 0013898 340.4385 019.6265 14.11128524103415
HUBBLE
1 20580U 90037B 11041.60843290 .00000640 00000-0 35982-4 0 7127
2 20580 028.4694 123.1746 0003504 211.1712 148.8749 15.01157440940610
ISS
1 25544U 98067A 11042.01601058 .00003529 00000-0 30642-4 0 8008
2 25544 051.6449 087.8999 0004517 299.5128 132.8333 15.72288264701044
CO-58
1 28895U 05043F 11040.66570968 .00000218 00000-0 54717-4 0 07972
2 28895 097.9860 281.8492 0016696 260.0426 099.8900 14.60004879281639
FALCON
1 30776U 07006E 11040.35488663 .00001006 00000-0 74127-4 0 189
2 30776 035.4336 043.9381 0000635 022.3295 337.7517 15.04102506215784
MAST
1 31126U 07012K 11041.66331871 .00000143 00000-0 42672-4 0 810
2 31126 097.9087 075.9612 0094272 203.9249 155.7548 14.53671523202701
CAPE1
1 31130U 07012P 11040.63469993 .00000100 00000-0 33602-4 0 1006
2 31130 097.9125 071.9553 0102038 216.9233 142.4906 14.52287734202129
COMPASS
1 32787U 08021E 11041.63999120 .00000471 00000-0 65678-4 0 9060
2 32787 097.8634 107.7488 0014943 226.5742 133.4173 14.82134656150817
AAUSAT2
1 32788U 08021F 11040.67359542 .00000596 00000-0 81139-4 0 08946
2 32788 097.8644 106.9844 0014380 231.4022 128.5941 14.82295508150684
DO-64
1 32789U 08021G 11040.71591148 .00000539 00000-0 73514-4 0 09128
2 32789 097.8725 107.8114 0014650 228.9534 131.0390 14.82582343150698
CO-66
1 32791U 08021J 11040.68704041 .00000561 00000-0 77521-4 0 08963
2 32791 097.8639 106.7878 0015219 229.1772 130.8123 14.81876202150622
RS-30
1 32953U 08025A 11041.61877328 .00000010 00000-0 00000 0 0 4586
2 32953 082.4966 241.4079 0018436 304.8846 055.0500 12.43010536123366
TACSAT-3
1 35001U 09028A 11040.93849831 .00007100 00000-0 15174-3 0 05028
2 35001 040.4535 223.0026 0024124 342.8596 017.1403 15.44727235097379
PHARMSAT
1 35002U 09028B 11040.89878882 .00006456 00000-0 13723-3 0 04673
2 35002 040.4669 220.7219 0026301 346.0517 013.9568 15.44941004097394
HAWKSAT1
1 35003U 09028C 11040.86343149 .00020570 00000-0 33409-3 0 05154
2 35003 040.4537 205.3902 0024934 010.6834 349.4510 15.51817104097567
CP6
1 35004U 09028D 11040.82970160 .00025310 00000-0 37748-3 0 05157
2 35004 040.4584 201.5100 0023924 015.9447 344.2127 15.54107199097593
AEROCUB3
1 35005U 09028E 11006.09222617 .14049365 73043-5 82692-3 0 6103
2 35005 040.4461 021.7975 0025578 084.1677 280.7191 16.39196088 92544
METEOR-M
1 35865U 09049A 11041.76431485 .00000176 00000-0 10000-3 0 881
2 35865 098.7242 098.4324 0003250 045.7569 314.3824 14.21834378 72620
RS-38
1 35869U 09049E 11041.70914172 .00000177 00000-0 10000-3 0 1004
2 35869 098.7225 098.4189 0005397 041.8013 318.3539 14.21999729 72628
